Starlink 35910

operational
NORAD ID: 67184 Int'l Des: 2025-303 Owner: SPXS Country: US Constellation: starlink
LEOCIRCULAR

About Starlink 35910

Description loading...

Live Position

Loading 3D Globe...

Upcoming Passes

Altitude History

Altitude vs Time

uPlot chart will show altitude changes over time

Two-Line Element Set

1 67184U 25303X 26045.44998090 .00039695 00000-0 95217-3 0 9998
2 67184 42.9961 81.7213 0002249 285.6397 74.4211 15.40711259 9180
Epoch: Feb 14, 2026 • Age: 61 hours

Current Status

Altitude 443.6 km
Velocity 7.65 km/s
Sub-Earth Point 7.25°N, 89.08°E
Launch Date Dec 17, 2025
Age 0.1 years
Type internet

Technical Details

Classification Payload
Mass 575.00 kg
Dry Mass 530.00 kg
Total Mass 575.00 kg
Length 0.30 m
Diameter 4.10 m
Span 29.00 m
Shape Box + pan
Manufacturer SPXS
Bus Type Starlink V2MO
Phase Status In Orbit
Owner/State SPXS/US

Large Constellations

Loading constellations...